Time,TemperatureF,DewpointF,PressureIn,WindDirection,WindDirectionDegrees,WindSpeedMPH,WindSpeedGustMPH,Humidity,HourlyPrecipIn,Conditions,Clouds,dailyrainin,SoftwareType,DateUTC
2013-01-22 00:00:00,10.8,6.7,30.67,SSW,196,0.0,0.0,83,0.00,,,0.01,Wunderground v.1.15,2013-01-22 07:00:00,
2013-01-22 00:05:00,10.8,6.9,30.66,SSW,196,0.0,0.0,84,0.00,,,0.01,Wunderground v.1.15,2013-01-22 07:05:00,
2013-01-22 00:10:00,10.8,6.4,30.67,SSW,196,0.0,0.0,82,0.00,,,0.01,Wunderground v.1.15,2013-01-22 07:10:00,
2013-01-22 00:16:00,10.2,5.3,30.66,SSW,196,0.0,1.0,80,0.00,,,0.01,Wunderground v.1.15,2013-01-22 07:16:00,
2013-01-22 00:25:00,9.9,5.8,30.66,SSW,196,0.0,1.0,83,0.00,,,0.01,Wunderground v.1.15,2013-01-22 07:25:00,
2013-01-22 00:30:00,9.9,5.5,30.66,SSW,196,0.0,1.0,82,0.00,,,0.01,Wunderground v.1.15,2013-01-22 07:30:00,
2013-01-22 00:35:00,9.8,5.7,30.66,SSW,196,0.0,1.0,83,0.00,,,0.01,Wunderground v.1.15,2013-01-22 07:35:00,
2013-01-22 00:40:00,9.9,6.0,30.66,SSW,196,0.0,1.0,84,0.00,,,0.01,Wunderground v.1.15,2013-01-22 07:40:00,
2013-01-22 00:45:00,10.0,6.1,30.66,SSW,196,0.0,1.0,84,0.00,,,0.01,Wunderground v.1.15,2013-01-22 07:45:00,
2013-01-22 00:50:00,10.0,5.6,30.66,SSW,196,0.0,1.0,82,0.00,,,0.01,Wunderground v.1.15,2013-01-22 07:50:00,
2013-01-22 01:00:00,9.2,4.6,30.67,SSW,196,0.0,1.0,81,0.00,,,0.01,Wunderground v.1.15,2013-01-22 08:00:00,
2013-01-22 01:05:00,9.0,4.6,30.67,SSW,196,0.0,1.0,82,0.00,,,0.00,Wunderground v.1.15,2013-01-22 08:05:00,
2013-01-22 01:10:00,8.9,4.8,30.67,SSW,196,0.0,1.0,83,0.00,,,0.00,Wunderground v.1.15,2013-01-22 08:10:00,
2013-01-22 01:16:00,8.6,4.2,30.67,SSW,196,0.0,1.0,82,0.00,,,0.00,Wunderground v.1.15,2013-01-22 08:16:00,
2013-01-22 01:25:00,8.5,4.1,30.67,SSW,196,0.0,0.0,82,0.00,,,0.00,Wunderground v.1.15,2013-01-22 08:25:00,
2013-01-22 01:30:00,8.4,4.0,30.67,SSW,196,0.0,0.0,82,0.00,,,0.00,Wunderground v.1.15,2013-01-22 08:30:00,
2013-01-22 01:35:00,8.4,4.3,30.67,SSW,196,0.0,0.0,83,0.00,,,0.00,Wunderground v.1.15,2013-01-22 08:35:00,
2013-01-22 01:40:00,8.4,4.6,30.68,SSW,196,0.0,0.0,84,0.00,,,0.00,Wunderground v.1.15,2013-01-22 08:40:00,
2013-01-22 01:45:00,8.3,3.9,30.68,SSW,196,0.0,0.0,82,0.00,,,0.00,Wunderground v.1.15,2013-01-22 08:45:00,
2013-01-22 01:50:00,8.2,4.1,30.68,SSW,196,0.0,0.0,83,0.00,,,0.00,Wunderground v.1.15,2013-01-22 08:50:00,
2013-01-22 02:00:00,8.1,3.7,30.69,SSW,196,0.0,0.0,82,0.00,,,0.00,Wunderground v.1.15,2013-01-22 09:00:00,
2013-01-22 02:05:00,7.9,3.3,30.69,SSW,196,0.0,0.0,81,0.00,,,0.00,Wunderground v.1.15,2013-01-22 09:05:00,
2013-01-22 02:10:00,7.8,3.4,30.69,SSW,196,0.0,0.0,82,0.00,,,0.00,Wunderground v.1.15,2013-01-22 09:10:00,
2013-01-22 02:15:00,7.6,3.3,30.69,SSW,196,0.0,0.0,82,0.00,,,0.00,Wunderground v.1.15,2013-01-22 09:15:00,
2013-01-22 02:25:00,7.6,3.3,30.69,SSW,196,0.0,0.0,82,0.00,,,0.00,Wunderground v.1.15,2013-01-22 09:25:00,
2013-01-22 02:30:00,7.5,3.2,30.69,SSW,196,0.0,0.0,82,0.00,,,0.00,Wunderground v.1.15,2013-01-22 09:30:00,
2013-01-22 02:35:00,7.3,2.7,30.69,SSW,196,0.0,0.0,81,0.00,,,0.00,Wunderground v.1.15,2013-01-22 09:35:00,
2013-01-22 02:40:00,7.1,2.5,30.69,SSW,196,0.0,0.0,81,0.00,,,0.00,Wunderground v.1.15,2013-01-22 09:40:00,
2013-01-22 02:45:00,6.9,2.6,30.69,SSW,196,0.0,0.0,82,0.00,,,0.00,Wunderground v.1.15,2013-01-22 09:45:00,
2013-01-22 02:50:00,7.1,3.3,30.69,SSW,196,0.0,0.0,84,0.00,,,0.00,Wunderground v.1.15,2013-01-22 09:50:00,
2013-01-22 02:55:00,7.1,3.0,30.69,SSW,196,0.0,0.0,83,0.00,,,0.00,Wunderground v.1.15,2013-01-22 09:55:00,
2013-01-22 03:05:00,7.0,3.2,30.70,SSW,196,0.0,0.0,84,0.00,,,0.00,Wunderground v.1.15,2013-01-22 10:05:00,
2013-01-22 03:10:00,7.0,2.9,30.70,SSW,196,0.0,0.0,83,0.00,,,0.00,Wunderground v.1.15,2013-01-22 10:10:00,
2013-01-22 03:15:00,6.9,2.6,30.69,SSW,196,0.0,0.0,82,0.00,,,0.00,Wunderground v.1.15,2013-01-22 10:15:00,
2013-01-22 03:25:00,6.8,2.5,30.69,SSW,196,0.0,0.0,82,0.00,,,0.00,Wunderground v.1.15,2013-01-22 10:25:00,
2013-01-22 03:30:00,6.9,2.6,30.68,SSW,196,0.0,0.0,82,0.00,,,0.00,Wunderground v.1.15,2013-01-22 10:30:00,
2013-01-22 03:35:00,6.6,2.0,30.68,SSW,196,0.0,0.0,81,0.00,,,0.00,Wunderground v.1.15,2013-01-22 10:35:00,
2013-01-22 03:40:00,6.4,2.1,30.68,SSW,196,0.0,0.0,82,0.00,,,0.00,Wunderground v.1.15,2013-01-22 10:40:00,
2013-01-22 03:45:00,6.3,2.2,30.67,SSW,196,0.0,0.0,83,0.00,,,0.00,Wunderground v.1.15,2013-01-22 10:45:00,
2013-01-22 03:50:00,6.3,2.5,30.67,SSW,196,0.0,0.0,84,0.00,,,0.00,Wunderground v.1.15,2013-01-22 10:50:00,
2013-01-22 03:55:00,6.3,2.2,30.68,SSW,196,0.0,0.0,83,0.00,,,0.00,Wunderground v.1.15,2013-01-22 10:55:00,
2013-01-22 04:05:00,6.1,2.0,30.67,SSW,196,0.0,0.0,83,0.00,,,0.00,Wunderground v.1.15,2013-01-22 11:05:00,
2013-01-22 04:10:00,6.3,2.2,30.68,SSW,196,0.0,0.0,83,0.00,,,0.00,Wunderground v.1.15,2013-01-22 11:10:00,
2013-01-22 04:15:00,6.4,2.3,30.68,SSW,196,0.0,1.0,83,0.00,,,0.00,Wunderground v.1.15,2013-01-22 11:15:00,
2013-01-22 04:25:00,6.0,1.4,30.68,SSW,196,0.0,1.0,81,0.00,,,0.00,Wunderground v.1.15,2013-01-22 11:25:00,
2013-01-22 04:30:00,5.8,1.2,30.68,SSW,196,0.0,1.0,81,0.00,,,0.00,Wunderground v.1.15,2013-01-22 11:30:00,
2013-01-22 04:35:00,5.7,1.4,30.68,SSW,196,0.0,1.0,82,0.00,,,0.00,Wunderground v.1.15,2013-01-22 11:35:00,
2013-01-22 04:40:00,5.7,1.4,30.67,SSW,196,0.0,1.0,82,0.00,,,0.00,Wunderground v.1.15,2013-01-22 11:40:00,
2013-01-22 04:45:00,5.6,1.3,30.67,SSW,196,0.0,1.0,82,0.00,,,0.00,Wunderground v.1.15,2013-01-22 11:45:00,
2013-01-22 04:50:00,5.5,0.9,30.67,SSW,196,0.0,1.0,81,0.00,,,0.00,Wunderground v.1.15,2013-01-22 11:50:00,
2013-01-22 04:55:00,5.4,1.4,30.67,SSW,196,0.0,1.0,83,0.00,,,0.00,Wunderground v.1.15,2013-01-22 11:55:00,
2013-01-22 05:00:00,5.3,1.3,30.68,SSW,196,0.0,1.0,83,0.00,,,0.00,Wunderground v.1.15,2013-01-22 12:00:00,
2013-01-22 05:10:00,5.4,1.6,30.69,SSW,196,0.0,1.0,84,0.00,,,0.00,Wunderground v.1.15,2013-01-22 12:10:00,
2013-01-22 05:15:00,5.2,0.6,30.69,SSW,196,0.0,1.0,81,0.00,,,0.00,Wunderground v.1.15,2013-01-22 12:15:00,
2013-01-22 05:25:00,5.2,1.2,30.70,SSW,196,0.0,1.0,83,0.00,,,0.00,Wunderground v.1.15,2013-01-22 12:25:00,
2013-01-22 05:30:00,5.1,0.8,30.70,SSW,196,0.0,1.0,82,0.00,,,0.00,Wunderground v.1.15,2013-01-22 12:30:00,
2013-01-22 05:40:00,4.6,0.1,30.70,SSW,196,0.0,1.0,81,0.00,,,0.00,Wunderground v.1.15,2013-01-22 12:40:00,
2013-01-22 05:45:00,4.7,0.7,30.70,SSW,196,0.0,1.0,83,0.00,,,0.00,Wunderground v.1.15,2013-01-22 12:45:00,
2013-01-22 05:50:00,4.8,0.8,30.71,SSW,196,0.0,1.0,83,0.00,,,0.00,Wunderground v.1.15,2013-01-22 12:50:00,
2013-01-22 05:55:00,4.9,0.9,30.71,SSW,196,0.0,1.0,83,0.00,,,0.00,Wunderground v.1.15,2013-01-22 12:55:00,
2013-01-22 06:00:00,4.9,0.3,30.71,SSW,196,0.0,1.0,81,0.00,,,0.00,Wunderground v.1.15,2013-01-22 13:00:00,
2013-01-22 06:05:00,4.7,0.4,30.71,SSW,196,0.0,1.0,82,0.00,,,0.00,Wunderground v.1.15,2013-01-22 13:05:00,
2013-01-22 06:10:00,4.6,0.1,30.71,SSW,196,0.0,1.0,81,0.00,,,0.00,Wunderground v.1.15,2013-01-22 13:10:00,
2013-01-22 06:16:00,4.5,0.5,30.71,SSW,196,0.0,1.0,83,0.00,,,0.00,Wunderground v.1.15,2013-01-22 13:16:00,
2013-01-22 06:25:00,4.5,0.2,30.72,SSW,196,0.0,0.0,82,0.00,,,0.00,Wunderground v.1.15,2013-01-22 13:25:00,
2013-01-22 06:30:00,4.4,0.1,30.72,SSW,196,0.0,0.0,82,0.00,,,0.00,Wunderground v.1.15,2013-01-22 13:30:00,
2013-01-22 06:40:00,4.3,-0.2,30.72,SSW,196,0.0,0.0,81,0.00,,,0.00,Wunderground v.1.15,2013-01-22 13:40:00,
2013-01-22 06:50:00,4.4,0.1,30.72,SSW,196,0.0,0.0,82,0.00,,,0.00,Wunderground v.1.15,2013-01-22 13:50:00,
2013-01-22 06:55:00,4.2,-0.3,30.71,SSW,196,0.0,0.0,81,0.00,,,0.00,Wunderground v.1.15,2013-01-22 13:55:00,
2013-01-22 07:05:00,4.2,-0.3,30.71,SSW,196,0.0,0.0,81,0.00,,,0.00,Wunderground v.1.15,2013-01-22 14:05:00,
2013-01-22 07:15:00,4.1,-0.4,30.71,SSW,196,0.0,1.0,81,0.00,,,0.00,Wunderground v.1.15,2013-01-22 14:15:00,
2013-01-22 07:25:00,4.0,-0.5,30.71,SSW,196,0.0,1.0,81,0.00,,,0.00,Wunderground v.1.15,2013-01-22 14:25:00,
2013-01-22 07:30:00,4.0,-0.3,30.71,SSW,196,0.0,1.0,82,0.00,,,0.00,Wunderground v.1.15,2013-01-22 14:30:00,
2013-01-22 07:35:00,4.0,0.0,30.71,SSW,196,0.0,1.0,83,0.00,,,0.00,Wunderground v.1.15,2013-01-22 14:35:00,
2013-01-22 07:40:00,3.9,-0.4,30.71,SSW,196,0.0,1.0,82,0.00,,,0.00,Wunderground v.1.15,2013-01-22 14:40:00,
2013-01-22 07:50:00,3.6,-0.7,30.72,SSW,196,0.0,1.0,82,0.00,,,0.00,Wunderground v.1.15,2013-01-22 14:50:00,
2013-01-22 07:55:00,3.7,-0.3,30.72,SSW,196,0.0,1.0,83,0.00,,,0.00,Wunderground v.1.15,2013-01-22 14:55:00,
2013-01-22 08:00:00,3.8,-0.2,30.72,SSW,196,0.0,1.0,83,0.00,,,0.00,Wunderground v.1.15,2013-01-22 15:00:00,
2013-01-22 08:10:00,3.8,-0.5,30.72,SSW,196,0.0,1.0,82,0.00,,,0.00,Wunderground v.1.15,2013-01-22 15:10:00,
2013-01-22 08:16:00,3.9,-0.1,30.71,SSW,196,0.0,1.0,83,0.00,,,0.00,Wunderground v.1.15,2013-01-22 15:16:00,
2013-01-22 08:25:00,4.5,0.7,30.71,SSW,196,0.0,0.0,84,0.00,,,0.00,Wunderground v.1.15,2013-01-22 15:25:00,
2013-01-22 08:30:00,4.7,0.9,30.71,SSW,196,0.0,0.0,84,0.00,,,0.00,Wunderground v.1.15,2013-01-22 15:30:00,
2013-01-22 08:35:00,5.0,1.2,30.71,SSW,196,0.0,0.0,84,0.00,,,0.00,Wunderground v.1.15,2013-01-22 15:35:00,
2013-01-22 08:40:00,5.4,2.1,30.71,SSW,196,0.0,0.0,86,0.00,,,0.00,Wunderground v.1.15,2013-01-22 15:40:00,
2013-01-22 08:45:00,6.0,2.5,30.72,SSW,196,0.0,0.0,85,0.00,,,0.00,Wunderground v.1.15,2013-01-22 15:45:00,
2013-01-22 08:55:00,7.5,4.9,30.72,SSW,196,0.0,0.0,89,0.00,,,0.00,Wunderground v.1.15,2013-01-22 15:55:00,
2013-01-22 09:00:00,8.6,6.0,30.72,SSW,196,0.0,0.0,89,0.00,,,0.00,Wunderground v.1.15,2013-01-22 16:00:00,
2013-01-22 09:10:00,10.0,6.9,30.72,SSW,196,0.0,0.0,87,0.00,,,0.00,Wunderground v.1.15,2013-01-22 16:10:00,
2013-01-22 09:15:00,11.0,8.1,30.72,SSW,196,0.0,0.0,88,0.00,,,0.00,Wunderground v.1.15,2013-01-22 16:15:00,
2013-01-22 09:20:00,11.9,9.3,30.73,SSW,196,0.0,0.0,89,0.00,,,0.00,Wunderground v.1.15,2013-01-22 16:20:00,
2013-01-22 09:30:00,13.9,11.3,30.73,SSW,196,0.0,0.0,89,0.00,,,0.00,Wunderground v.1.15,2013-01-22 16:30:00,
2013-01-22 09:35:00,14.9,12.2,30.73,SSW,196,0.0,0.0,89,0.00,,,0.00,Wunderground v.1.15,2013-01-22 16:35:00,
2013-01-22 09:40:00,15.7,13.0,30.74,SSW,196,0.0,0.0,89,0.00,,,0.00,Wunderground v.1.15,2013-01-22 16:40:00,
2013-01-22 09:50:00,17.5,14.6,30.73,SSW,196,0.0,0.0,88,0.00,,,0.00,Wunderground v.1.15,2013-01-22 16:50:00,
2013-01-22 09:55:00,18.4,15.4,30.73,SSW,196,0.0,0.0,88,0.00,,,0.00,Wunderground v.1.15,2013-01-22 16:55:00,
2013-01-22 10:05:00,19.7,16.5,30.73,SSW,196,0.0,0.0,87,0.00,,,0.00,Wunderground v.1.15,2013-01-22 17:05:00,
2013-01-22 10:10:00,20.6,16.8,30.73,SSW,196,0.0,0.0,85,0.00,,,0.00,Wunderground v.1.15,2013-01-22 17:10:00,
2013-01-22 10:15:00,21.4,15.0,30.73,SSW,196,0.0,0.0,76,0.00,,,0.00,Wunderground v.1.15,2013-01-22 17:15:00,
2013-01-22 10:25:00,22.7,14.1,30.72,SSW,196,0.0,1.0,69,0.00,,,0.00,Wunderground v.1.15,2013-01-22 17:25:00,
2013-01-22 10:35:00,24.4,13.6,30.72,SSW,196,0.0,0.0,63,0.00,,,0.00,Wunderground v.1.15,2013-01-22 17:35:00,
2013-01-22 10:40:00,25.2,14.0,30.72,SSW,196,0.0,0.0,62,0.00,,,0.00,Wunderground v.1.15,2013-01-22 17:40:00,
2013-01-22 10:45:00,25.9,13.5,30.72,SSW,196,0.0,0.0,59,0.00,,,0.00,Wunderground v.1.15,2013-01-22 17:45:00,
2013-01-22 10:50:00,26.7,13.5,30.71,SSW,196,0.0,0.0,57,0.00,,,0.00,Wunderground v.1.15,2013-01-22 17:50:00,
2013-01-22 11:00:00,28.5,13.5,30.70,SSW,196,0.0,0.0,53,0.00,,,0.00,Wunderground v.1.15,2013-01-22 18:00:00,
2013-01-22 11:05:00,29.7,14.2,30.70,SSW,196,0.0,0.0,52,0.00,,,0.00,Wunderground v.1.15,2013-01-22 18:05:00,
2013-01-22 11:15:00,32.4,14.4,30.70,SSW,196,1.0,1.0,47,0.00,,,0.00,Wunderground v.1.15,2013-01-22 18:15:00,
2013-01-22 11:25:00,33.2,13.6,30.70,SSW,196,1.0,2.0,44,0.00,,,0.00,Wunderground v.1.15,2013-01-22 18:25:00,
2013-01-22 11:35:00,34.4,14.2,30.70,South,188,0.0,1.0,43,0.00,,,0.00,Wunderground v.1.15,2013-01-22 18:35:00,
2013-01-22 11:40:00,35.1,14.3,30.69,South,188,0.0,0.0,42,0.00,,,0.00,Wunderground v.1.15,2013-01-22 18:40:00,
2013-01-22 11:45:00,35.7,14.3,30.69,South,188,0.0,0.0,41,0.00,,,0.00,Wunderground v.1.15,2013-01-22 18:45:00,
2013-01-22 11:50:00,36.3,14.3,30.69,South,188,0.0,0.0,40,0.00,,,0.00,Wunderground v.1.15,2013-01-22 18:50:00,
2013-01-22 12:00:00,37.0,13.7,30.68,South,188,0.0,0.0,38,0.00,,,0.00,Wunderground v.1.15,2013-01-22 19:00:00,
2013-01-22 12:05:00,37.5,14.8,30.68,South,171,1.0,1.0,39,0.00,,,0.00,Wunderground v.1.15,2013-01-22 19:05:00,
2013-01-22 12:10:00,37.7,15.5,30.67,South,171,1.0,1.0,40,0.00,,,0.00,Wunderground v.1.15,2013-01-22 19:10:00,
2013-01-22 12:15:00,37.8,14.4,30.67,South,171,0.0,2.0,38,0.00,,,0.00,Wunderground v.1.15,2013-01-22 19:15:00,
2013-01-22 12:25:00,38.0,14.6,30.67,SE,130,2.0,2.0,38,0.00,,,0.00,Wunderground v.1.15,2013-01-22 19:25:00,
2013-01-22 12:35:00,38.4,15.6,30.67,ESE,115,2.0,2.0,39,0.00,,,0.00,Wunderground v.1.15,2013-01-22 19:35:00,
2013-01-22 12:40:00,38.7,15.2,30.66,ESE,115,2.0,2.0,38,0.00,,,0.00,Wunderground v.1.15,2013-01-22 19:40:00,
2013-01-22 12:45:00,39.3,15.2,30.66,SE,138,1.0,2.0,37,0.00,,,0.00,Wunderground v.1.15,2013-01-22 19:45:00,
2013-01-22 12:50:00,39.9,14.4,30.66,SE,138,1.0,1.0,35,0.00,,,0.00,Wunderground v.1.15,2013-01-22 19:50:00,
2013-01-22 12:55:00,40.6,15.0,30.65,SE,138,1.0,2.0,35,0.00,,,0.00,Wunderground v.1.15,2013-01-22 19:55:00,
2013-01-22 13:05:00,41.8,16.8,30.65,SE,138,0.0,2.0,36,0.00,,,0.00,Wunderground v.1.15,2013-01-22 20:05:00,
2013-01-22 13:10:00,42.4,15.3,30.65,SE,138,0.0,2.0,33,0.00,,,0.00,Wunderground v.1.15,2013-01-22 20:10:00,
2013-01-22 13:15:00,42.4,17.9,30.64,SE,138,1.0,3.0,37,0.00,,,0.00,Wunderground v.1.15,2013-01-22 20:15:00,
2013-01-22 13:25:00,42.2,18.4,30.64,South,179,1.0,2.0,38,0.00,,,0.00,Wunderground v.1.15,2013-01-22 20:25:00,
2013-01-22 13:35:00,42.1,18.9,30.63,SSE,159,1.0,3.0,39,0.00,,,0.00,Wunderground v.1.15,2013-01-22 20:35:00,
2013-01-22 13:40:00,41.4,19.4,30.63,SE,124,1.0,1.0,41,0.00,,,0.00,Wunderground v.1.15,2013-01-22 20:40:00,
2013-01-22 13:45:00,41.4,20.5,30.63,SE,144,1.0,3.0,43,0.00,,,0.00,Wunderground v.1.15,2013-01-22 20:45:00,
2013-01-22 13:50:00,41.3,18.8,30.63,SE,144,1.0,1.0,40,0.00,,,0.00,Wunderground v.1.15,2013-01-22 20:50:00,
2013-01-22 13:55:00,41.4,20.0,30.62,SE,144,1.0,3.0,42,0.00,,,0.00,Wunderground v.1.15,2013-01-22 20:55:00,
2013-01-22 14:05:00,41.6,20.2,30.62,SSE,157,0.0,3.0,42,0.00,,,0.00,Wunderground v.1.15,2013-01-22 21:05:00,
2013-01-22 14:10:00,41.4,19.4,30.62,SSE,155,1.0,3.0,41,0.00,,,0.00,Wunderground v.1.15,2013-01-22 21:10:00,
2013-01-22 14:15:00,41.2,20.4,30.63,SSE,155,0.0,3.0,43,0.00,,,0.00,Wunderground v.1.15,2013-01-22 21:15:00,
2013-01-22 14:25:00,40.9,20.6,30.62,South,169,0.0,3.0,44,0.00,,,0.00,Wunderground v.1.15,2013-01-22 21:25:00,
2013-01-22 14:30:00,40.9,20.6,30.62,South,169,0.0,3.0,44,0.00,,,0.00,Wunderground v.1.15,2013-01-22 21:30:00,
2013-01-22 14:40:00,40.9,22.2,30.62,South,169,0.0,3.0,47,0.00,,,0.00,Wunderground v.1.15,2013-01-22 21:40:00,
2013-01-22 14:45:00,40.8,21.6,30.62,South,169,0.0,3.0,46,0.00,,,0.00,Wunderground v.1.15,2013-01-22 21:45:00,
2013-01-22 14:50:00,40.6,19.8,30.61,South,169,0.0,3.0,43,0.00,,,0.00,Wunderground v.1.15,2013-01-22 21:50:00,
2013-01-22 14:55:00,40.5,20.8,30.61,South,169,1.0,3.0,45,0.00,,,0.00,Wunderground v.1.15,2013-01-22 21:55:00,
2013-01-22 15:00:00,40.5,20.8,30.61,South,178,1.0,1.0,45,0.00,,,0.00,Wunderground v.1.15,2013-01-22 22:00:00,
2013-01-22 15:10:00,40.5,21.3,30.61,South,178,1.0,1.0,46,0.00,,,0.00,Wunderground v.1.15,2013-01-22 22:10:00,
2013-01-22 15:15:00,40.6,21.4,30.61,South,178,0.0,3.0,46,0.00,,,0.00,Wunderground v.1.15,2013-01-22 22:15:00,
2013-01-22 15:25:00,40.5,22.3,30.61,SSW,194,0.0,3.0,48,0.00,,,0.00,Wunderground v.1.15,2013-01-22 22:25:00,
2013-01-22 15:30:00,40.4,21.7,30.61,SSW,194,0.0,3.0,47,0.00,,,0.00,Wunderground v.1.15,2013-01-22 22:30:00,
2013-01-22 15:40:00,40.0,21.4,30.62,SSW,194,0.0,3.0,47,0.00,,,0.00,Wunderground v.1.15,2013-01-22 22:40:00,
2013-01-22 15:45:00,39.9,22.3,30.62,SSW,194,0.0,3.0,49,0.00,,,0.00,Wunderground v.1.15,2013-01-22 22:45:00,
2013-01-22 15:50:00,39.5,22.8,30.62,SSW,194,0.0,3.0,51,0.00,,,0.00,Wunderground v.1.15,2013-01-22 22:50:00,
2013-01-22 15:55:00,39.0,21.9,30.62,SSW,194,0.0,3.0,50,0.00,,,0.00,Wunderground v.1.15,2013-01-22 22:55:00,
2013-01-22 16:00:00,38.7,22.6,30.62,SSW,194,0.0,3.0,52,0.00,,,0.00,Wunderground v.1.15,2013-01-22 23:00:00,
2013-01-22 16:10:00,37.9,21.8,30.62,SSW,194,0.0,3.0,52,0.00,,,0.00,Wunderground v.1.15,2013-01-22 23:10:00,
2013-01-22 16:15:00,37.4,22.3,30.62,SSW,194,0.0,3.0,54,0.00,,,0.01,Wunderground v.1.15,2013-01-22 23:15:00,
2013-01-22 16:25:00,35.2,19.8,30.63,SSW,194,1.0,2.0,53,0.00,,,0.01,Wunderground v.1.15,2013-01-22 23:25:00,
2013-01-22 16:30:00,34.4,19.5,30.63,SSW,194,0.0,1.0,54,0.00,,,0.01,Wunderground v.1.15,2013-01-22 23:30:00,
2013-01-22 16:35:00,33.9,19.8,30.63,SSW,194,0.0,1.0,56,0.00,,,0.01,Wunderground v.1.15,2013-01-22 23:35:00,
2013-01-22 16:45:00,32.7,19.1,30.64,SSW,194,0.0,1.0,57,0.00,,,0.01,Wunderground v.1.15,2013-01-22 23:45:00,
2013-01-22 16:50:00,32.1,20.2,30.64,SSW,194,0.0,1.0,61,0.00,,,0.01,Wunderground v.1.15,2013-01-22 23:50:00,
2013-01-22 16:55:00,31.6,19.3,30.64,SSW,194,0.0,1.0,60,0.00,,,0.01,Wunderground v.1.15,2013-01-22 23:55:00,
2013-01-22 17:00:00,31.0,19.1,30.65,SSW,194,0.0,1.0,61,0.00,,,0.01,Wunderground v.1.15,2013-01-23 00:00:00,
2013-01-22 17:05:00,30.2,19.1,30.65,SSW,194,0.0,1.0,63,0.00,,,0.01,Wunderground v.1.15,2013-01-23 00:05:00,
2013-01-22 17:16:00,28.8,18.9,30.65,SSW,194,0.0,1.0,66,0.00,,,0.01,Wunderground v.1.15,2013-01-23 00:16:00,
2013-01-22 17:25:00,27.9,18.0,30.66,SSW,194,0.0,0.0,66,0.00,,,0.01,Wunderground v.1.15,2013-01-23 00:25:00,
2013-01-22 17:30:00,27.6,17.4,30.66,SSW,194,0.0,0.0,65,0.00,,,0.01,Wunderground v.1.15,2013-01-23 00:30:00,
2013-01-22 17:35:00,27.4,18.6,30.66,SSW,194,0.0,0.0,69,0.00,,,0.01,Wunderground v.1.15,2013-01-23 00:35:00,
2013-01-22 17:45:00,26.4,17.6,30.67,SSW,194,0.0,0.0,69,0.00,,,0.01,Wunderground v.1.15,2013-01-23 00:45:00,
2013-01-22 17:50:00,26.2,17.1,30.67,SSW,194,0.0,0.0,68,0.00,,,0.01,Wunderground v.1.15,2013-01-23 00:50:00,
2013-01-22 17:55:00,26.1,17.3,30.67,SSW,194,0.0,0.0,69,0.00,,,0.01,Wunderground v.1.15,2013-01-23 00:55:00,
2013-01-22 18:00:00,25.8,16.7,30.67,SSW,194,0.0,0.0,68,0.00,,,0.01,Wunderground v.1.15,2013-01-23 01:00:00,
2013-01-22 18:05:00,25.7,16.6,30.67,SSW,194,0.0,0.0,68,0.00,,,0.01,Wunderground v.1.15,2013-01-23 01:05:00,
2013-01-22 18:16:00,25.4,17.0,30.67,SSW,194,0.0,0.0,70,0.00,,,0.01,Wunderground v.1.15,2013-01-23 01:16:00,
2013-01-22 18:25:00,25.1,16.7,30.68,SSW,194,0.0,0.0,70,0.00,,,0.01,Wunderground v.1.15,2013-01-23 01:25:00,
2013-01-22 18:30:00,24.9,16.5,30.68,SSW,194,0.0,0.0,70,0.00,,,0.01,Wunderground v.1.15,2013-01-23 01:30:00,
2013-01-22 18:35:00,24.5,16.1,30.69,SSW,194,0.0,0.0,70,0.00,,,0.01,Wunderground v.1.15,2013-01-23 01:35:00,
2013-01-22 18:40:00,24.2,16.1,30.69,SSW,194,0.0,0.0,71,0.00,,,0.01,Wunderground v.1.15,2013-01-23 01:40:00,
2013-01-22 18:50:00,23.8,15.8,30.69,SSW,194,0.0,0.0,71,0.00,,,0.01,Wunderground v.1.15,2013-01-23 01:50:00,
2013-01-22 18:55:00,23.6,15.6,30.69,SSW,194,0.0,0.0,71,0.00,,,0.01,Wunderground v.1.15,2013-01-23 01:55:00,
2013-01-22 19:00:00,23.3,15.3,30.69,SSW,194,0.0,0.0,71,0.00,,,0.01,Wunderground v.1.15,2013-01-23 02:00:00,
2013-01-22 19:05:00,23.1,15.4,30.70,SSW,194,0.0,0.0,72,0.00,,,0.01,Wunderground v.1.15,2013-01-23 02:05:00,
2013-01-22 19:10:00,22.9,15.5,30.70,SSW,194,0.0,0.0,73,0.00,,,0.01,Wunderground v.1.15,2013-01-23 02:10:00,
2013-01-22 19:16:00,22.9,15.2,30.70,SSW,194,0.0,0.0,72,0.00,,,0.01,Wunderground v.1.15,2013-01-23 02:16:00,
2013-01-22 19:25:00,22.1,14.4,30.70,SSW,194,0.0,0.0,72,0.00,,,0.01,Wunderground v.1.15,2013-01-23 02:25:00,
2013-01-22 19:30:00,21.7,14.7,30.70,SSW,194,0.0,0.0,74,0.00,,,0.01,Wunderground v.1.15,2013-01-23 02:30:00,
2013-01-22 19:35:00,21.5,14.5,30.70,SSW,194,0.0,0.0,74,0.00,,,0.01,Wunderground v.1.15,2013-01-23 02:35:00,
2013-01-22 19:40:00,21.2,14.2,30.70,SSW,194,0.0,0.0,74,0.00,,,0.01,Wunderground v.1.15,2013-01-23 02:40:00,
2013-01-22 19:50:00,20.5,13.8,30.70,SSW,194,0.0,1.0,75,0.00,,,0.01,Wunderground v.1.15,2013-01-23 02:50:00,
2013-01-22 19:55:00,20.1,13.4,30.70,SSW,194,0.0,1.0,75,0.00,,,0.01,Wunderground v.1.15,2013-01-23 02:55:00,
2013-01-22 20:00:00,19.8,13.5,30.70,SSW,194,0.0,0.0,76,0.00,,,0.01,Wunderground v.1.15,2013-01-23 03:00:00,
2013-01-22 20:05:00,19.8,13.8,30.70,SSW,194,0.0,0.0,77,0.00,,,0.01,Wunderground v.1.15,2013-01-23 03:05:00,
2013-01-22 20:10:00,19.8,13.5,30.71,SSW,194,0.0,0.0,76,0.00,,,0.01,Wunderground v.1.15,2013-01-23 03:10:00,
2013-01-22 20:16:00,19.7,13.1,30.71,SSW,194,0.0,1.0,75,0.00,,,0.01,Wunderground v.1.15,2013-01-23 03:16:00,
2013-01-22 20:25:00,19.1,11.9,30.71,SSW,194,0.0,1.0,73,0.00,,,0.01,Wunderground v.1.15,2013-01-23 03:25:00,
2013-01-22 20:30:00,18.5,11.6,30.72,SSW,194,0.0,1.0,74,0.00,,,0.01,Wunderground v.1.15,2013-01-23 03:30:00,
2013-01-22 20:35:00,18.1,11.8,30.72,SSW,194,0.0,1.0,76,0.00,,,0.01,Wunderground v.1.15,2013-01-23 03:35:00,
2013-01-22 20:40:00,18.0,12.3,30.72,SSW,194,0.0,1.0,78,0.00,,,0.01,Wunderground v.1.15,2013-01-23 03:40:00,
2013-01-22 20:45:00,17.9,12.2,30.71,SSW,194,0.0,1.0,78,0.00,,,0.01,Wunderground v.1.15,2013-01-23 03:45:00,
2013-01-22 20:55:00,17.4,11.4,30.72,SSW,194,0.0,1.0,77,0.00,,,0.01,Wunderground v.1.15,2013-01-23 03:55:00,
2013-01-22 21:00:00,17.2,11.5,30.71,SSW,194,0.0,1.0,78,0.00,,,0.01,Wunderground v.1.15,2013-01-23 04:00:00,
2013-01-22 21:05:00,17.1,11.4,30.72,SSW,194,0.0,1.0,78,0.00,,,0.01,Wunderground v.1.15,2013-01-23 04:05:00,
2013-01-22 21:15:00,17.0,11.6,30.72,SSW,194,0.0,1.0,79,0.00,,,0.01,Wunderground v.1.15,2013-01-23 04:15:00,
2013-01-22 21:20:00,16.8,10.5,30.72,SSW,194,0.0,1.0,76,0.00,,,0.01,Wunderground v.1.15,2013-01-23 04:20:00,
2013-01-22 21:25:00,16.3,10.4,30.72,SSW,194,0.0,1.0,77,0.00,,,0.01,Wunderground v.1.15,2013-01-23 04:25:00,
2013-01-22 21:30:00,16.1,10.4,30.73,SSW,194,0.0,1.0,78,0.00,,,0.01,Wunderground v.1.15,2013-01-23 04:30:00,
2013-01-22 21:35:00,15.9,10.5,30.72,SSW,194,0.0,1.0,79,0.00,,,0.01,Wunderground v.1.15,2013-01-23 04:35:00,
2013-01-22 21:40:00,15.6,10.0,30.72,SSW,194,0.0,1.0,78,0.00,,,0.01,Wunderground v.1.15,2013-01-23 04:40:00,
2013-01-22 21:45:00,15.4,10.1,30.72,SSW,194,0.0,1.0,79,0.00,,,0.01,Wunderground v.1.15,2013-01-23 04:45:00,
2013-01-22 21:55:00,15.0,9.4,30.73,SSW,194,0.0,1.0,78,0.00,,,0.01,Wunderground v.1.15,2013-01-23 04:55:00,
2013-01-22 22:05:00,14.8,9.5,30.73,SSW,194,0.0,1.0,79,0.00,,,0.01,Wunderground v.1.15,2013-01-23 05:05:00,
2013-01-22 22:10:00,14.3,9.0,30.73,SSW,194,0.0,1.0,79,0.00,,,0.01,Wunderground v.1.15,2013-01-23 05:10:00,
2013-01-22 22:15:00,14.2,8.6,30.73,SSW,194,0.0,1.0,78,0.00,,,0.01,Wunderground v.1.15,2013-01-23 05:15:00,
2013-01-22 22:20:00,14.0,8.7,30.73,SSW,194,0.0,0.0,79,0.00,,,0.01,Wunderground v.1.15,2013-01-23 05:20:00,
2013-01-22 22:25:00,13.9,8.9,30.73,SSW,194,0.0,0.0,80,0.00,,,0.01,Wunderground v.1.15,2013-01-23 05:25:00,
2013-01-22 22:31:00,13.6,8.0,30.73,SSW,194,0.0,0.0,78,0.00,,,0.01,Wunderground v.1.15,2013-01-23 05:31:00,
2013-01-22 22:40:00,13.4,8.4,30.73,SSW,194,0.0,0.0,80,0.00,,,0.01,Wunderground v.1.15,2013-01-23 05:40:00,
2013-01-22 22:45:00,13.4,8.7,30.73,SSW,194,0.0,0.0,81,0.00,,,0.01,Wunderground v.1.15,2013-01-23 05:45:00,
2013-01-22 22:50:00,13.3,8.6,30.73,SSW,194,0.0,0.0,81,0.00,,,0.01,Wunderground v.1.15,2013-01-23 05:50:00,
2013-01-22 22:55:00,12.9,7.6,30.73,SSW,194,0.0,0.0,79,0.00,,,0.01,Wunderground v.1.15,2013-01-23 05:55:00,
2013-01-22 23:00:00,12.5,7.5,30.74,SSW,194,0.0,0.0,80,0.00,,,0.01,Wunderground v.1.15,2013-01-23 06:00:00,
2013-01-22 23:05:00,12.3,7.3,30.74,SSW,194,0.0,0.0,80,0.00,,,0.01,Wunderground v.1.15,2013-01-23 06:05:00,
2013-01-22 23:10:00,12.2,7.2,30.73,SSW,194,0.0,0.0,80,0.00,,,0.01,Wunderground v.1.15,2013-01-23 06:10:00,
2013-01-22 23:16:00,12.1,7.4,30.73,SSW,194,0.0,1.0,81,0.00,,,0.01,Wunderground v.1.15,2013-01-23 06:16:00,
2013-01-22 23:25:00,11.9,6.9,30.73,SSW,194,0.0,1.0,80,0.00,,,0.01,Wunderground v.1.15,2013-01-23 06:25:00,
2013-01-22 23:35:00,11.6,6.9,30.74,SSW,194,0.0,1.0,81,0.00,,,0.01,Wunderground v.1.15,2013-01-23 06:35:00,
2013-01-22 23:40:00,11.5,6.5,30.74,SSW,194,0.0,1.0,80,0.00,,,0.01,Wunderground v.1.15,2013-01-23 06:40:00,
2013-01-22 23:45:00,11.3,6.6,30.73,SSW,194,0.0,1.0,81,0.00,,,0.01,Wunderground v.1.15,2013-01-23 06:45:00,
2013-01-22 23:50:00,11.2,6.2,30.73,SSW,194,0.0,1.0,80,0.00,,,0.01,Wunderground v.1.15,2013-01-23 06:50:00,
2013-01-22 23:55:00,10.9,5.9,30.73,SSW,194,0.0,1.0,80,0.00,,,0.01,Wunderground v.1.15,2013-01-23 06:55:00,